Tracking 19827 objects as of 22-Aug-2019
HD Live streaming from Space Station
objects crossing your sky now

DELTA 2 R/B(1)

Track DELTA 2 R/B(1) now!
10-day predictions


NORAD ID: 27665
Int'l Code: 2003-005C
Perigee: 797.9 km
Apogee: 809.8 km
Inclination: 39.6 °
Period: 100.8 minutes
Semi major axis: 7174 km
RCS: 9.691 m2 (large)
Launch date: January 29, 2003
Source: United States (US)
Launch site: AIR FORCE EASTERN TEST RANGE (AFETR)

Note: This is a ROCKET BODY
aabbcc
Your satellite tracking list
Your tracking list is empty




NASA's NSSDC Master Catalog

Two Line Element Set (TLE):
1 27665U 03005C   19233.42230670 -.00000154 +00000-0 -27112-4 0  9995
2 27665 039.5770 020.8648 0008258 028.1133 017.2869 14.28505694864586
Source of the keplerian elements: AFSPC